This is the latest recevied weather packets stored in our database for station/object HB9FHL-13. If no packets are shown the sender has not sent any weather packets the latest 1 day(s).
| Time | Temp. | Humidity | Pressure | Rain* | Wind** | Luminosity | Snow |
|---|---|---|---|---|---|---|---|
| 1777959628 | 11.11° C | - | 1005.9 hPa | 0 mm | 0.45 m/s, 255° | - | - |
| 1777959327 | 11.11° C | - | 1007.6 hPa | 0 mm | 0 m/s | - | - |
| 1777959025 | 11.11° C | - | 1008.4 hPa | 0 mm | 0 m/s | - | - |
| 1777958724 | 11.11° C | - | 1009.6 hPa | 0 mm | 0.89 m/s, 221° | - | - |
| 1777958423 | 10.56° C | - | 1009.9 hPa | 0 mm | 0 m/s | - | - |
| 1777958123 | 11.11° C | - | 1011.7 hPa | 0 mm | 0 m/s | - | - |
| 1777957822 | 12.22° C | - | 1008.3 hPa | 0 mm | 0 m/s | - | - |
| 1777957522 | 11.67° C | - | 1009.7 hPa | 0 mm | 0 m/s | - | - |
| 1777957220 | 10.56° C | - | 1011.8 hPa | 0 mm | 0 m/s | - | - |
| 1777956920 | 11.67° C | - | 1010.9 hPa | 0 mm | 0 m/s | - | - |
| 1777956619 | 11.67° C | - | 1008 hPa | 0 mm | 0 m/s | - | - |
| 1777956319 | 11.67° C | - | 1009.8 hPa | 0 mm | 0 m/s | - | - |
| 1777956018 | 11.67° C | - | 1011 hPa | 0 mm | 0 m/s | - | - |
| 1777955718 | 10.56° C | - | 1008.1 hPa | 0 mm | 0 m/s | - | - |
| 1777955417 | 11.11° C | - | 1013.2 hPa | 0 mm | 0 m/s | - | - |
| 1777955117 | 11.11° C | - | 1009.8 hPa | 0 mm | 0 m/s | - | - |
| 1777954816 | 11.67° C | - | 1007.5 hPa | 0 mm | 0 m/s | - | - |
| 1777954516 | 11.11° C | - | 1008.7 hPa | 0 mm | 0 m/s | - | - |
| 1777954215 | 11.67° C | - | 1008.5 hPa | 0 mm | 0 m/s | - | - |
| 1777953915 | 11.11° C | - | 1013.2 hPa | 0 mm | 0 m/s | - | - |
| 1777953623 | 11.67° C | - | 1010 hPa | 0 mm | 0 m/s | - | - |
| 1777953314 | 11.67° C | - | 1009 hPa | 0 mm | 0 m/s | - | - |
| 1777953014 | 11.11° C | - | 1011.1 hPa | 0 mm | 0 m/s | - | - |
| 1777952713 | 10.56° C | - | 1012.4 hPa | 0 mm | 0.45 m/s, 226° | - | - |
| 1777952412 | 11.11° C | - | 1012.7 hPa | 0 mm | 0 m/s | - | - |
* Rain since midnight (hover to see other rain measurements)
** Current wind speed in m/s (hover to see current wind gust speed)